Pittsfield, IL

2:55 AM CST on February 21, 2017 (GMT -0600)
Pittsfield Penstone Municipal

Weather History for KPPQ - November, 2013

Change the Weather History Date:

Friday, November 8, 2013

  Actual Average (KUIN) Record (KUIN)
Temperature  
Mean Temperature 42 °F -  
Max Temperature 55 °F 54 °F 84 °F (1915)
Min Temperature 28 °F 35 °F 0 °F (1991)
Degree Days  
Heating Degree Days 24    
Moisture  
Dew Point 31 °F    
Average Humidity 64    
Maximum Humidity 96    
Minimum Humidity 35    
Precipitation  
Precipitation 0.00 in - - ()
Sea Level Pressure  
Sea Level Pressure 30.20 in    
Wind  
Wind Speed 7 mph (SSE)    
Max Wind Speed 21 mph    
Max Gust Speed 30 mph    
Visibility 10 miles    
Events      
Averages and records for this station are not official NWS values.
T = Trace of Precipitation, MM = Missing Value Source: NWS Daily Summary

Daily Weather History Graph

Daily Weather History Graph

Search for Another Location

Airport or City:

Trip Planner

Search our weather history database for the weather conditions in past years. The results will help you decide how hot, cold, wet, or windy it might be!

Date:

Astronomy

Nov. 08, 2013 Rise Set
Actual Time 6:39 AM CST 4:53 PM CST
Civil Twilight 6:11 AM CST 5:21 PM CST
Nautical Twilight 5:39 AM CST 5:54 PM CST
Astronomical Twilight 5:07 AM CST 6:25 PM CST
Moon 11:35 AM CST (11/8) 10:14 PM CST (11/8)
Length of Visible Light 11h 10m
Length of Day
10h 13m
Waxing Crescent, 33% of the Moon is Illuminated
Nov 8
Waxing Crescent
Nov 9
First Quarter
Nov 17
Full
Nov 25
Last Quarter
Dec 2
New

Hourly Weather History & Observations

Time (CST) Temp. Windchill Dew Point Humidity Pressure Visibility Wind Dir Wind Speed Gust Speed Precip Events Conditions
12:15 AM 32.7 °F 29.6 °F 30.0 °F 90% 30.34 in 10.0 mi WSW 3.5 mph - N/A   Clear
12:35 AM 31.8 °F 28.5 °F 29.5 °F 91% 30.34 in 10.0 mi West 3.5 mph - N/A   Clear
12:55 AM 31.3 °F 27.9 °F 28.9 °F 91% 30.34 in 10.0 mi WSW 3.5 mph - N/A   Clear
1:15 AM 30.6 °F 27.1 °F 28.8 °F 93% 30.34 in 10.0 mi WSW 3.5 mph - N/A   Clear
1:35 AM 29.5 °F - 28.0 °F 94% 30.34 in 10.0 mi Calm Calm - N/A   Clear
1:55 AM 29.5 °F - 27.7 °F 93% 30.34 in 10.0 mi Calm Calm - N/A   Clear
2:15 AM 30.2 °F - 28.6 °F 94% 30.34 in 10.0 mi Calm Calm - N/A   Clear
2:35 AM 30.4 °F - 28.4 °F 92% 30.34 in 10.0 mi Calm Calm - N/A   Clear
2:55 AM 30.2 °F 26.7 °F 27.9 °F 91% 30.34 in 10.0 mi WSW 3.5 mph - N/A   Clear
3:15 AM 29.1 °F - 27.5 °F 94% 30.34 in 10.0 mi Calm Calm - N/A   Clear
3:35 AM 29.3 °F - 27.9 °F 94% 30.34 in 10.0 mi Calm Calm - N/A   Clear
3:55 AM 28.4 °F - 26.6 °F 93% 30.34 in 10.0 mi Calm Calm - N/A   Clear
4:15 AM 28.0 °F - 26.8 °F 95% 30.34 in 10.0 mi Calm Calm - N/A   Clear
4:35 AM 28.9 °F - 27.3 °F 94% 30.35 in 10.0 mi Calm Calm - N/A   Clear
4:55 AM 28.2 °F - 26.8 °F 94% 30.34 in 10.0 mi Calm Calm - N/A   Clear
5:15 AM 28.6 °F - 27.3 °F 95% 30.34 in 10.0 mi Calm Calm - N/A   Clear
5:35 AM 28.0 °F 24.2 °F 27.0 °F 96% 30.34 in 10.0 mi SSE 3.5 mph - N/A   Clear
5:55 AM 29.5 °F 25.9 °F 27.7 °F 93% 30.34 in 10.0 mi SSE 3.5 mph - N/A   Clear
6:15 AM 28.0 °F - 26.1 °F 92% 30.33 in 10.0 mi Calm Calm - N/A   Clear
6:35 AM 29.5 °F 25.9 °F 27.9 °F 94% 30.33 in 10.0 mi ESE 3.5 mph - N/A   Clear
6:55 AM 28.4 °F 24.6 °F 26.6 °F 93% 30.34 in 10.0 mi SSW 3.5 mph - N/A   Clear
7:15 AM 30.2 °F 26.7 °F 27.9 °F 91% 30.35 in 10.0 mi South 3.5 mph - N/A   Clear
7:35 AM 32.0 °F 28.7 °F 30.0 °F 92% 30.35 in 10.0 mi South 3.5 mph - N/A   Clear
7:55 AM 34.9 °F 30.8 °F 31.8 °F 89% 30.36 in 10.0 mi South 4.6 mph - N/A   Clear
8:15 AM 37.0 °F 34.5 °F 32.0 °F 82% 30.36 in 10.0 mi SSE 3.5 mph - N/A   Clear
8:35 AM 39.0 °F 35.7 °F 32.4 °F 77% 30.35 in 10.0 mi SSE 4.6 mph - N/A   Clear
8:55 AM 41.2 °F 37.3 °F 33.6 °F 74% 30.35 in 10.0 mi SSE 5.8 mph - N/A   Clear
9:15 AM 43.5 °F 38.3 °F 33.1 °F 67% 30.34 in 10.0 mi SE 9.2 mph - N/A   Clear
9:35 AM 44.6 °F 40.7 °F 33.8 °F 66% 30.33 in 10.0 mi SSE 6.9 mph - N/A   Clear
9:55 AM 45.3 °F 40.6 °F 33.6 °F 64% 30.33 in 10.0 mi SSE 9.2 mph - N/A   Clear
10:15 AM 45.9 °F 40.8 °F 33.6 °F 62% 30.32 in 10.0 mi SE 10.4 mph - N/A   Clear
10:35 AM 46.0 °F 41.4 °F 32.9 °F 60% 30.31 in 10.0 mi SE 9.2 mph - N/A   Clear
10:55 AM 46.4 °F 41.5 °F 33.6 °F 61% 30.30 in 10.0 mi SSE 10.4 mph - N/A   Clear
11:15 AM 47.3 °F - 33.4 °F 59% 30.28 in 10.0 mi SSE 11.5 mph - N/A   Clear
11:35 AM 47.7 °F - 32.0 °F 55% 30.27 in 10.0 mi SSE 11.5 mph - N/A   Clear
11:55 AM 48.6 °F - 32.2 °F 53% 30.25 in 10.0 mi SSE 11.5 mph - N/A   Clear
12:15 PM 50.5 °F - 31.8 °F 49% 30.23 in 10.0 mi SSE 13.8 mph 17.3 mph N/A   Clear
12:35 PM 52.7 °F - 30.4 °F 42% 30.22 in 10.0 mi SSE 16.1 mph - N/A   Clear
12:55 PM 52.3 °F - 30.2 °F 43% 30.20 in 10.0 mi SSE 15.0 mph - N/A   Clear
1:15 PM 55.2 °F - 30.4 °F 39% 30.18 in 10.0 mi SE 12.7 mph 19.6 mph N/A   Clear
1:35 PM 55.0 °F - 28.0 °F 35% 30.18 in 10.0 mi South 10.4 mph 13.8 mph N/A   Clear
1:55 PM 55.9 °F - 31.1 °F 39% 30.16 in 10.0 mi SSE 10.4 mph 19.6 mph N/A   Clear
2:15 PM 55.8 °F - 31.5 °F 40% 30.15 in 10.0 mi SSE 13.8 mph - N/A   Clear
2:35 PM 55.4 °F - 29.7 °F 37% 30.13 in 10.0 mi SE 12.7 mph - N/A   Clear
2:55 PM 55.6 °F - 28.8 °F 36% 30.12 in 10.0 mi SE 16.1 mph 19.6 mph N/A   Clear
3:15 PM 54.9 °F - 28.0 °F 36% 30.11 in 10.0 mi SSE 11.5 mph - N/A   Clear
3:35 PM 54.5 °F - 27.7 °F 36% 30.10 in 10.0 mi SSE 17.3 mph 21.9 mph N/A   Clear
3:55 PM 54.0 °F - 28.4 °F 37% 30.09 in 10.0 mi SSE 13.8 mph 19.6 mph N/A   Clear
4:15 PM 54.0 °F - 28.9 °F 38% 30.08 in 10.0 mi SSE 13.8 mph 19.6 mph N/A   Clear
4:35 PM 53.6 °F - 28.6 °F 38% 30.07 in 10.0 mi SSE 16.1 mph 21.9 mph N/A   Clear
4:55 PM 52.3 °F - 29.7 °F 42% 30.06 in 10.0 mi SSE 12.7 mph - N/A   Clear
5:15 PM 51.8 °F - 30.4 °F 44% 30.05 in 10.0 mi SSE 13.8 mph - N/A   Clear
5:35 PM 50.9 °F - 30.9 °F 46% 30.04 in 10.0 mi SE 13.8 mph - N/A   Clear
5:55 PM 50.0 °F - 32.0 °F 50% 30.03 in 10.0 mi SSE 13.8 mph - N/A   Clear
6:15 PM 49.3 °F - 32.4 °F 52% 30.03 in 10.0 mi SSE 13.8 mph - N/A   Clear
6:35 PM 49.3 °F - 32.4 °F 52% 30.04 in 10.0 mi SSE 11.5 mph - N/A   Clear
6:55 PM 48.9 °F - 32.4 °F 53% 30.04 in 10.0 mi SSE 11.5 mph - N/A   Clear
7:15 PM 50.2 °F - 32.0 °F 50% 30.03 in 10.0 mi SSE 12.7 mph 16.1 mph N/A   Clear
7:35 PM 51.1 °F - 32.0 °F 48% 30.03 in 10.0 mi South 13.8 mph 21.9 mph N/A   Clear
7:55 PM 52.2 °F - 31.8 °F 46% 30.02 in 10.0 mi South 16.1 mph 24.2 mph N/A   Clear
8:15 PM 53.2 °F - 31.6 °F 44% 30.02 in 10.0 mi South 19.6 mph 29.9 mph N/A   Clear
8:35 PM 52.9 °F - 32.0 °F 45% 30.02 in 10.0 mi South 20.7 mph 28.8 mph N/A   Clear
8:55 PM 52.5 °F - 32.0 °F 46% 30.02 in 10.0 mi South 19.6 mph 27.6 mph N/A   Clear
9:15 PM 52.0 °F - 32.2 °F 47% 30.03 in 10.0 mi South 19.6 mph 25.3 mph N/A   Clear
9:35 PM 51.8 °F - 32.7 °F 48% 30.03 in 10.0 mi South 15.0 mph 25.3 mph N/A   Clear
9:55 PM 51.1 °F - 32.9 °F 50% 30.03 in 10.0 mi South 16.1 mph 21.9 mph N/A   Clear
10:15 PM 50.5 °F - 33.3 °F 52% 30.02 in 10.0 mi South 13.8 mph 21.9 mph N/A   Clear
10:35 PM 50.4 °F - 33.8 °F 53% 30.02 in 10.0 mi South 15.0 mph 24.2 mph N/A   Clear
10:55 PM 50.4 °F - 33.8 °F 53% 30.01 in 10.0 mi South 16.1 mph 23.0 mph N/A   Clear
11:15 PM 50.2 °F - 34.2 °F 54% 30.02 in 10.0 mi SSW 15.0 mph 19.6 mph N/A   Clear
11:35 PM 50.0 °F - 34.7 °F 56% 30.02 in 10.0 mi South 13.8 mph 18.4 mph N/A   Clear
11:55 PM 49.5 °F - 34.9 °F 57% 30.02 in 10.0 mi South 11.5 mph 16.1 mph N/A   Clear